Showing default

BD-17, 40549

Orbit data source: Space-Track

BD-17, 40549 is a payload satellite owned by CNSA (CN) that was launched on Mon, 30 Mar 2015 UTC via a CHANG ZHENG 3C/YZ-1 launch vehicle from the Xichang Space Center, China (XSC). Payload-class satellites include a variety of spacecraft equipped with specific instruments for various scientific and technological missions. These include communications satellites like Starlink; space stations such as the ISS; scientific satellites like the Hubble; Earth observation satellites from companies like Planet Labs, Umbra, and HawkEye 360; GPS; miniature CubeSats for education and research; and military/defense satellites.

Not visible in the next 10 days
Identifier
40549, 2015-019A
Orbit
Active
Country
Flag of CNCN / PRC
Related business
Manufacturer
SECM
Mission
Awaiting activation Defense Navigation
Bus & Motor
BD-3I, AKM?
Mass
~1,150 kg wet, ~850 kg dry
Launch date (UTC)
2015-03-30 (11 years ago)
Launch vehicle
CHANG ZHENG 3C/YZ-1
Launch site
Xichang Space Center, China (XSC)
Object type
Payload
Rocket body
Debris
Shape & HBR
Box + 2 Pan, 5.0 m
Radar Cross Section
9.494 m², Large (>1 m²)

Expand to show TLE details & history
Last TLE update: 1 month ago

TLE from 1 month ago
0 BD-17
1 40549U 15019A   25297.52891953 -.00000131  00000-0  00000-0 0  9991
2 40549  49.6453 298.3029 0040505 197.6198 177.4401  1.00251575 38712
Epoch: 2025-10-24T12:41Z
TLE epoch observation values (Epoch: 2025-10-24T12:41:38.647Z)
Latitude
11.45737°
Longitude
84.62648°
Altitude
35,961.795 km
Speed
3.062 km/s
True Right ascension
20h 32m 50s
True Declination
11° 26' 46"
Sunlit
Object was in daylight at epoch
Visualization orbit readout
Latitude
Unknown
Longitude
Unknown
Altitude
Unknown
Speed
Unknown
Apparent Right ascension
Unknown
Apparent Declination
Unknown
Sunlit
N/A
Visualization observer readout
Local Sidereal Time
15:05:05
Azimuth
Unknown
Elevation
Unknown
Doppler factor
Unknown
Orbital elements
Apogee altitude
35,963.234 km
Perigee altitude
35,621.61 km
Semi-major axis
42,170.559 km
Eccentricity
0.00405
Inclination
49.6453°
RAAN
298.3029°
Arg. of periapsis
197.6198°
True anomaly
177.46073°
Mean anomaly
177.4401°
Eccentric anomaly
177.45042°
Mean motion
0.25063 °/min
Orbital period
1,436.39 mins
BSTAR
0
Loading maneuver chart data...
Computing Atmospheric mass density...
Loading historical data...
Loading historical data...
Loading historical data...
Loading historical data...
Loading historical data...
Loading historical data...
Loading historical data...
Other satellites on launch #19 in the year 2015 (2015-03-30 UTC)

Documentation

Showing up to 5 results
|